When you browse on this site, cookies collect data to enhance your experience and personalize the content and advertising you see.
Visit our Privacy Policy to learn more. By continuing to use the site, you agree to this use of cookies and data.

Hourly Weather Malanville

Today, 16 July, Thursday

Time Temperature Precipitation Wind Pressure Humidity
00:00 +26°C° 0 mm 1 mps 744 mmHg 91%
01:00 +26°C° 0.4 mm 2 mps 744 mmHg 91%
02:00 +26°C° 0.4 mm 2 mps 743 mmHg 92%
03:00 +26°C° 0.4 mm 2 mps 743 mmHg 92%
04:00 +26°C° 0.3 mm 2 mps 743 mmHg 92%
05:00 +26°C° 0.3 mm 2 mps 744 mmHg 91%
06:00 +26°C° 0 mm 2 mps 744 mmHg 90%
07:00 +27°C° 0 mm 3 mps 745 mmHg 86%
08:00 +28°C° 0 mm 3 mps 745 mmHg 81%
09:00 +29°C° 0 mm 4 mps 745 mmHg 77%
10:00 +30°C° 0.2 mm 4 mps 745 mmHg 72%
11:00 +32°C° 0.2 mm 4 mps 745 mmHg 68%
12:00 +33°C° 0.2 mm 4 mps 745 mmHg 63%
13:00 +33°C° 1.2 mm 3 mps 744 mmHg 62%
14:00 +33°C° 1.2 mm 3 mps 743 mmHg 61%
15:00 +34°C° 1.2 mm 3 mps 742 mmHg 60%
16:00 +33°C° 1.6 mm 3 mps 743 mmHg 65%
17:00 +30°C° 1.6 mm 3 mps 743 mmHg 71%
18:00 +29°C° 1.6 mm 3 mps 743 mmHg 76%
19:00 +29°C° 0.8 mm 3 mps 744 mmHg 79%
20:00 +28°C° 0.8 mm 3 mps 744 mmHg 82%
21:00 +27°C° 0.8 mm 3 mps 745 mmHg 85%
22:00 +27°C° 0.5 mm 3 mps 745 mmHg 87%
23:00 +26°C° 0.5 mm 3 mps 745 mmHg 88%

Tomorrow, 17 July, Friday

Time Temperature Precipitation Wind Pressure Humidity
00:00 +26°C° 0.5 mm 3 mps 745 mmHg 90%
01:00 +26°C° 0.8 mm 4 mps 744 mmHg 90%
02:00 +25°C° 0.8 mm 4 mps 744 mmHg 90%
03:00 +25°C° 0.8 mm 4 mps 744 mmHg 90%
04:00 +25°C° 0 mm 3 mps 744 mmHg 90%
05:00 +25°C° 0 mm 3 mps 744 mmHg 90%
06:00 +25°C° 0 mm 2 mps 744 mmHg 89%
07:00 +27°C° 0 mm 3 mps 744 mmHg 83%
08:00 +28°C° 0 mm 3 mps 745 mmHg 77%
09:00 +30°C° 0 mm 3 mps 745 mmHg 71%
10:00 +31°C° 0 mm 3 mps 745 mmHg 66%
11:00 +32°C° 0 mm 2 mps 745 mmHg 61%
12:00 +33°C° 0 mm 1 mps 744 mmHg 55%
13:00 +33°C° 0 mm 1 mps 743 mmHg 54%
14:00 +34°C° 0 mm 1 mps 743 mmHg 52%
15:00 +32°C° 0 mm 0 mps 742 mmHg 50%
16:00 +33°C° 0 mm 1 mps 742 mmHg 54%
17:00 +33°C° 0 mm 1 mps 742 mmHg 58%
18:00 +32°C° 0 mm 2 mps 742 mmHg 61%
19:00 +31°C° 0.1 mm 2 mps 742 mmHg 64%
20:00 +30°C° 0.1 mm 3 mps 743 mmHg 68%
21:00 +30°C° 0.1 mm 3 mps 743 mmHg 71%
22:00 +29°C° 0.3 mm 3 mps 743 mmHg 74%
23:00 +28°C° 0.3 mm 3 mps 743 mmHg 77%

Day after tomorrow, 18 July, Saturday

Time Temperature Precipitation Wind Pressure Humidity
00:00 +28°C° 0.3 mm 3 mps 743 mmHg 80%
01:00 +27°C° 0.1 mm 3 mps 743 mmHg 82%
02:00 +27°C° 0.1 mm 2 mps 743 mmHg 84%
03:00 +27°C° 0.1 mm 2 mps 743 mmHg 87%
04:00 +27°C° 0.2 mm 2 mps 743 mmHg 87%
05:00 +26°C° 0.2 mm 3 mps 744 mmHg 88%
06:00 +26°C° 0.2 mm 3 mps 744 mmHg 89%
07:00 +27°C° 0.1 mm 3 mps 745 mmHg 84%
08:00 +28°C° 0.1 mm 3 mps 745 mmHg 78%
09:00 +30°C° 0.1 mm 4 mps 745 mmHg 72%
10:00 +32°C° 0 mm 4 mps 745 mmHg 66%
11:00 +33°C° 0 mm 4 mps 744 mmHg 60%
12:00 +35°C° 0 mm 4 mps 744 mmHg 55%
13:00 +35°C° 0 mm 4 mps 743 mmHg 54%
14:00 +34°C° 0 mm 4 mps 743 mmHg 53%
15:00 +34°C° 0 mm 4 mps 742 mmHg 53%
16:00 +33°C° 0 mm 4 mps 742 mmHg 57%
17:00 +31°C° 0 mm 3 mps 742 mmHg 62%
18:00 +30°C° 0 mm 2 mps 742 mmHg 67%
19:00 +30°C° 0 mm 2 mps 742 mmHg 71%
20:00 +29°C° 0 mm 3 mps 743 mmHg 74%
21:00 +28°C° 0 mm 3 mps 743 mmHg 78%
22:00 +28°C° 0 mm 3 mps 743 mmHg 79%
23:00 +27°C° 0 mm 3 mps 743 mmHg 81%

19 July, Sunday

Time Temperature Precipitation Wind Pressure Humidity
00:00 +27°C° 0 mm 2 mps 743 mmHg 83%
01:00 +27°C° 0.1 mm 2 mps 743 mmHg 84%
02:00 +27°C° 0.1 mm 2 mps 743 mmHg 85%
03:00 +26°C° 0.1 mm 2 mps 743 mmHg 86%
04:00 +26°C° 0 mm 2 mps 743 mmHg 86%
05:00 +26°C° 0 mm 2 mps 743 mmHg 86%
06:00 +26°C° 0 mm 2 mps 743 mmHg 87%
07:00 +27°C° 0 mm 3 mps 743 mmHg 80%
08:00 +29°C° 0 mm 3 mps 744 mmHg 73%
09:00 +30°C° 0 mm 4 mps 744 mmHg 66%
10:00 +33°C° 0 mm 4 mps 744 mmHg 61%
11:00 +34°C° 0 mm 4 mps 743 mmHg 56%
12:00 +35°C° 0 mm 4 mps 743 mmHg 50%
13:00 +36°C° 0.1 mm 4 mps 742 mmHg 50%
14:00 +36°C° 0.1 mm 3 mps 742 mmHg 49%
15:00 +36°C° 0.1 mm 3 mps 741 mmHg 48%
16:00 +34°C° 0.6 mm 3 mps 741 mmHg 56%
17:00 +33°C° 0.6 mm 3 mps 741 mmHg 63%
18:00 +30°C° 0.6 mm 3 mps 741 mmHg 70%
19:00 +30°C° 0.1 mm 4 mps 742 mmHg 74%
20:00 +29°C° 0.1 mm 4 mps 742 mmHg 77%
21:00 +28°C° 0.1 mm 4 mps 743 mmHg 81%
22:00 +27°C° 0.9 mm 4 mps 743 mmHg 83%
23:00 +26°C° 0.9 mm 4 mps 743 mmHg 85%

20 July, Monday

Time Temperature Precipitation Wind Pressure Humidity
00:00 +26°C° 0.9 mm 3 mps 743 mmHg 88%
01:00 +26°C° 0.4 mm 3 mps 743 mmHg 88%
02:00 +25°C° 0.4 mm 3 mps 742 mmHg 88%
03:00 +25°C° 0.4 mm 3 mps 742 mmHg 88%
04:00 +25°C° 0 mm 4 mps 743 mmHg 88%
05:00 +25°C° 0 mm 4 mps 743 mmHg 88%
06:00 +25°C° 0 mm 4 mps 743 mmHg 88%
07:00 +27°C° 0 mm 4 mps 743 mmHg 82%
08:00 +28°C° 0 mm 4 mps 743 mmHg 75%
09:00 +30°C° 0 mm 4 mps 744 mmHg 68%
10:00 +32°C° 0 mm 4 mps 744 mmHg 62%
11:00 +33°C° 0 mm 3 mps 743 mmHg 57%
12:00 +35°C° 0 mm 3 mps 743 mmHg 52%
13:00 +35°C° 0 mm 3 mps 743 mmHg 51%
14:00 +35°C° 0 mm 3 mps 742 mmHg 50%
15:00 +36°C° 0 mm 2 mps 741 mmHg 48%
16:00 +35°C° 0 mm 2 mps 741 mmHg 52%
17:00 +34°C° 0 mm 2 mps 741 mmHg 55%
18:00 +32°C° 0 mm 2 mps 741 mmHg 59%
19:00 +32°C° 0 mm 2 mps 742 mmHg 61%
20:00 +31°C° 0 mm 2 mps 742 mmHg 63%
21:00 +30°C° 0 mm 2 mps 743 mmHg 66%
22:00 +29°C° 0 mm 3 mps 743 mmHg 69%
23:00 +29°C° 0 mm 3 mps 743 mmHg 72%

21 July, Tuesday

Time Temperature Precipitation Wind Pressure Humidity
00:00 +28°C° 0 mm 3 mps 743 mmHg 75%
01:00 +28°C° 0.7 mm 3 mps 743 mmHg 79%
02:00 +27°C° 0.7 mm 4 mps 742 mmHg 83%
03:00 +26°C° 0.7 mm 4 mps 742 mmHg 87%
04:00 +26°C° 0 mm 4 mps 742 mmHg 87%
05:00 +26°C° 0 mm 4 mps 742 mmHg 87%
06:00 +26°C° 0 mm 4 mps 743 mmHg 87%
07:00 +28°C° 0 mm 4 mps 743 mmHg 81%
08:00 +29°C° 0 mm 4 mps 743 mmHg 74%
09:00 +30°C° 0 mm 5 mps 744 mmHg 68%
10:00 +33°C° 0 mm 4 mps 743 mmHg 60%
11:00 +34°C° 0 mm 3 mps 743 mmHg 53%
12:00 +36°C° 0 mm 2 mps 743 mmHg 45%
13:00 +36°C° 0 mm 2 mps 742 mmHg 44%
14:00 +36°C° 0 mm 1 mps 742 mmHg 42%
15:00 +36°C° 0 mm 1 mps 741 mmHg 40%
16:00 +35°C° 0 mm 1 mps 741 mmHg 45%
17:00 +35°C° 0 mm 2 mps 741 mmHg 49%
18:00 +34°C° 0 mm 2 mps 740 mmHg 54%
19:00 +32°C° 0 mm 2 mps 741 mmHg 59%
20:00 +31°C° 0 mm 3 mps 741 mmHg 64%
21:00 +30°C° 0 mm 3 mps 742 mmHg 69%
22:00 +29°C° 0.3 mm 3 mps 742 mmHg 72%
23:00 +28°C° 0.3 mm 3 mps 742 mmHg 75%
Show more